Location: Burkes Observatory
(44.7598°N, 69.4315°W)
Time: 13:59:19
(UTC-04:00)

Daily predictions for brighter satellites

Satellite Brightness Start Highest point End
(mag) Time Altitude Azimuth Time Altitude Azimuth Time Altitude Azimuth
Cosmos 1980 Rocket 3.5 19:41:21 10° SE 19:45:11 19° E 19:49:02 10° ENE
Cosmos 2369 3.7 19:42:25 10° SSW 19:48:04 75° ESE 19:53:47 10° NNE
ALOS 2.3 19:44:35 10° SSE 19:49:12 63° ENE 19:53:50 10° N
Cosmos 1898 Rocket 3.9 19:45:06 10° NNW 19:50:16 48° ENE 19:55:20 10° SE
Cosmos 1821 Rocket 4.2 19:44:34 10° S 19:50:40 79° W 19:56:48 10° N
EO 1 Delta rocket 4.2 19:48:30 10° NNE 19:53:09 51° E 19:58:29 10° S
Cosmos 1605 Rocket 4.0 19:47:40 10° S 19:53:55 66° E 20:00:07 10° NNE
USA 186 2.0 19:52:32 10° SE 19:55:21 40° ENE 19:57:59 10° N
H-2A R/B 2.9 19:51:49 10° SSE 19:55:38 57° ENE 19:59:32 10° N
FENGYUN 3A 3.6 19:54:11 10° SSE 19:59:31 77° ENE 20:04:53 10° N
Cosmos 1656 3.8 19:55:05 10° S 20:00:31 54° ESE 20:05:56 10° NNE
Cosmos 2084 3.4 19:56:59 10° NW 20:01:02 89° WSW 20:05:18 10° SE
H-2A R/B 3.8 20:00:51 10° E 20:03:20 16° ENE 20:05:49 10° NNE
Cosmos 1626 Rocket 3.5 19:59:11 10° N 20:03:35 70° E 20:07:55 10° SSE
Cosmos 468 Rocket 4.3 19:59:01 10° S 20:03:46 40° ESE 20:08:34 10° NE
Cosmos 2263 Rocket 4.2 20:04:39 10° NNE 20:07:10 13° NE 20:09:39 10° ENE
Meteor 1-29 4.3 20:04:16 10° N 20:07:36 44° WNW 20:10:55 10° SW
Cosmos 1455 Rocket 3.7 20:05:41 10° SSW 20:09:57 61° W 20:14:18 10° N
Cosmos 220 Rocket 4.2 20:07:24 10° NNW 20:11:37 70° WSW 20:15:48 10° SSE
Cosmos 1975 2.8 20:07:43 10° S 20:11:48 70° E 20:15:54 10° NNE
Cosmos 2227 Rocket 3.2 20:08:02 10° NW 20:13:26 47° WSW 20:18:47 10° S
Cosmos 1602 Rocket 3.6 20:09:19 10° N 20:13:48 89° ENE 20:18:13 10° S
Lacrosse 5 rocket 3.0 20:11:07 10° WNW 20:14:11 24° SW 20:17:11 10° S
Tiangong 1 1.6 20:13:13 10° W 20:16:13 44° SSW 20:18:16 17° SE
Cosmos 1814 Rocket 4.3 20:11:25 10° S 20:16:28 45° ESE 20:21:30 10° NNE
Cosmos 2061 Rocket 4.4 20:12:00 10° SSE 20:17:46 40° E 20:23:32 10° NNE
Cosmos 2322 Rocket 3.8 20:19:06 13° E 20:19:26 13° E 20:22:03 10° ENE
CZ-2D R/B 3.6 20:15:55 10° S 20:19:46 68° WSW 20:23:40 10° NNW
Cosmos 1500 3.2 20:17:41 10° S 20:21:22 56° E 20:25:05 10° NNE
Cosmos 1340 3.5 20:23:32 10° N 20:27:01 33° ENE 20:29:01 20° SE
Cosmos 2297 Rocket 3.1 20:22:54 10° NW 20:28:21 49° WSW 20:33:46 10° S
Cosmos 1459 Rocket 4.1 20:25:12 10° SSE 20:31:01 52° E 20:36:55 10° NNE
Cosmos 2227 4.4 20:33:27 10° NNW 20:39:08 57° ENE 20:42:56 21° SE
Iridium 4 Rocket 3.5 20:34:52 10° N 20:39:53 74° W 20:44:26 10° S
Cosmos 1515 4.5 20:40:04 10° NNW 20:43:50 52° W 20:47:33 10° S
Cosmos 2058 Rocket 4.0 20:45:10 25° ESE 20:46:26 30° E 20:50:22 10° NNE
Cosmos 1606 Rocket 3.8 20:45:32 17° SSE 20:48:42 47° E 20:52:59 10° NNE
Envisat 3.0 20:46:26 19° SSE 20:50:05 67° ENE 20:55:09 10° N
Cosmos 1937 Rocket 3.7 20:45:10 10° NNW 20:50:27 74° WSW 20:54:56 15° SSE
Lacrosse 5 2.4 20:45:34 10° WNW 20:50:29 52° SW 20:53:46 20° SSE
Cosmos 1939 Rocket 2.9 20:48:13 22° SSE 20:50:51 73° ENE 20:55:01 10° N
Cosmos 990 Rocket 4.0 20:54:24 10° NNW 20:59:42 83° WSW 21:03:08 22° SSE
SPOT 5 3.1 20:58:57 30° SE 21:01:06 52° ENE 21:05:43 10° N
Cosmos 1743 2.7 20:59:31 10° S 21:03:26 83° W 21:07:22 10° N
Cosmos 1697 Rocket 3.1 20:58:59 10° SW 21:04:36 65° WNW 21:10:14 10° NNE
SL-08 R/B 4.4 21:05:26 15° S 21:10:32 63° E 21:16:36 10° NNE
Cosmos 1726 Rocket 3.4 21:09:03 27° S 21:11:20 71° E 21:15:44 10° NNE
ERS-1 Rocket 3.4 21:08:34 15° S 21:12:39 60° WSW 21:17:38 10° NNW
Cosmos 1802 Rocket 4.0 21:06:51 10° S 21:13:16 89° WNW 21:19:45 10° N
H-2A R/B 3.3 21:15:50 22° ENE 21:16:18 22° ENE 21:20:02 10° NNE
RESURS DK-1 3.9 21:12:43 10° NW 21:16:26 32° WSW 21:18:51 18° SSW
SL-16 R/B 2.6 21:16:08 37° ESE 21:16:42 38° ESE 21:21:55 10° NE
ARGOS 3.6 21:16:12 36° ESE 21:17:37 43° ENE 21:22:42 10° N
Terra 3.5 21:20:22 19° ENE 21:20:28 19° ENE 21:23:47 10° NNE
Cosmos 2016 Rocket 3.9 21:14:39 10° S 21:20:48 88° E 21:27:03 10° N
Cosmos 836 Rocket 4.5 21:18:44 23° S 21:22:00 62° ESE 21:27:15 10° NNE
Cosmos 1825 Rocket 4.4 21:19:58 10° NNW 21:24:15 48° W 21:26:56 21° SSW
Cosmos 1763 Rocket 3.5 21:21:07 10° SSW 21:26:13 77° WNW 21:31:18 10° NNE
MetOp-B 4.0 21:25:58 40° SSE 21:27:58 81° ENE 21:33:21 10° NNW
Cosmos 1980 Rocket 2.5 21:22:55 10° SW 21:28:34 68° WNW 21:34:17 10° NNE
Cosmos 2360 Rocket 4.2 21:32:39 13° ENE 21:32:39 13° ENE 21:33:24 10° NE
SPOT 1/Viking Rocket 3.6 21:34:23 52° SE 21:35:26 65° ENE 21:40:36 10° N
Cosmos 1953 Rocket 4.3 21:31:32 10° NNW 21:35:52 50° W 21:37:48 29° SSW
Cosmos 1842 3.4 21:32:37 10° NNW 21:36:31 67° W 21:36:55 61° SW
Cosmos 2098 Rocket 3.8 21:31:59 16° S 21:37:28 90° WSW 21:42:58 10° N
USA 215 3.9 21:34:13 26° E 21:37:35 48° NNE 21:43:48 10° NW
Cosmos 1125 Rocket 3.4 21:33:25 10° NNW 21:38:40 90° ENE 21:39:49 56° SSE
H-2A R/B 2.5 21:37:53 41° SSW 21:38:56 53° W 21:43:01 10° NNW
Nimbus 7 Rocket 4.5 21:34:04 10° NNE 21:40:09 84° WNW 21:45:42 13° SSW
SL-19 R/B 4.1 21:35:55 10° NNE 21:41:18 60° ESE 21:41:51 57° SE
Cosmos 2228 2.9 21:43:11 79° NE 21:43:11 79° NE 21:47:19 10° N
Cosmos 1666 3.2 21:45:23 53° WSW 21:45:44 56° W 21:49:29 10° N
USA 245 4.4 21:45:28 45° SSE 21:47:38 89° ENE 21:53:56 10° NNW
Cosmos 1864 Rocket 4.4 21:46:03 29° S 21:49:22 85° W 21:55:31 10° N
Cosmos 841 Rocket 4.1 21:45:30 10° SW 21:50:37 55° WNW 21:55:46 10° NNE
Cosmos 2263 Rocket 2.2 21:46:46 10° NNW 21:52:18 62° ENE 21:52:51 58° E
YAOGAN 6 3.4 21:53:36 49° W 21:53:36 49° W 21:56:58 10° NNW
ASTEX 1 4.0 21:51:55 10° N 21:56:49 55° W 21:58:58 31° SW
Cosmos 2346 Rocket 4.4 21:52:17 10° N 21:58:29 67° E 21:59:16 61° ESE
Cosmos 540 Rocket 3.4 21:59:24 67° ENE 21:59:24 67° ENE 22:04:02 10° NNE
SL-08 RB Rocket 3.7 21:59:58 79° NNE 21:59:58 79° NNE 22:04:23 10° NNW
Tsikada Rocket 4.3 21:53:29 10° NNW 21:59:51 67° W 22:02:25 37° SSW
Cosmos 2322 Rocket 2.1 22:00:47 45° SSW 22:02:38 88° WNW 22:08:18 10° NNE
Meteor 2-5 Rocket 3.7 22:01:41 10° N 22:07:36 71° ENE 22:07:52 70° E
GP-B 4.3 22:04:02 10° NNE 22:06:43 33° NNE 22:06:43 33° NNE
Meteor 2-17 Rocket 4.3 22:08:22 59° S 22:09:38 88° W 22:15:44 10° N
Cosmos 372 Rocket 4.0 22:09:08 10° NNW 22:14:11 72° W 22:14:11 72° W
Meteor 1-24 Rocket 4.2 22:12:58 10° N 22:18:34 52° ENE 22:18:34 52° ENE
CZ-4B R/B 4.1 22:34:47 10° N 22:39:05 50° NW 22:39:05 50° NW
Cosmos 371 Rocket 4.2 22:41:02 44° N 22:41:02 44° N 22:44:28 10° NNE
Cosmos 1072 Rocket 4.5 22:42:02 72° NE 22:42:02 72° NE 22:47:39 10° N
Cosmos 2278 Rocket 3.9 22:39:39 10° N 22:43:59 22° NE 22:44:03 22° NE
H-2A R/B 3.0 22:56:29 42° WNW 22:56:29 42° WNW 23:00:12 10° NNW
Terra 3.0 22:59:15 39° NW 22:59:15 39° NW 23:02:29 10° NNW
SL-16 R/B 3.5 22:57:52 22° WSW 23:00:49 36° NW 23:06:03 10° NNE
Cosmos 1844 Rocket 3.5 22:58:20 10° NNW 23:02:32 44° NNE 23:02:32 44° NNE
Cosmos 2034 Rocket 4.3 23:11:46 61° N 23:11:46 61° N 23:16:48 10° N
Cosmos 2360 Rocket 3.0 23:14:22 48° N 23:14:22 48° N 23:18:35 10° NNE
BREEZE-M DEB (TANK) 4.4 22:53:02 10° WNW 23:14:28 57° SW 23:14:38 57° SW
USA 215 3.5 23:21:34 58° W 23:21:34 58° W 23:26:58 10° NW
Cosmos 2219 Rocket 4.1 23:35:33 20° NE 23:35:33 20° NE 23:37:21 10° NE
Cosmos 2263 Rocket 4.2 23:31:43 10° NW 23:34:33 19° W 23:34:33 19° W
Cosmos 2237 Rocket 4.1 23:57:52 21° NE 23:57:52 21° NE 23:59:52 10° NE
